OBJECT AC, 47958

Orbit data source: Space-Track

You're viewing an Uncataloged Satellite

Recently launched and/or uncataloged satellites may have evolving metadata. Metadata may include but not limited to: Owner, Maufacturer, Bus, Motor, and Mission.

OBJECT AC, 47958 is a satellite in SSO that was launched on Mon, 22 Mar 2021 UTC via a SOYUZ-2-1A launch vehicle from the Tyuratam Missile And Space Complex (TTMTR). Unknown objects in Earth's orbit typically refer to objects detected orbiting the Earth but have not yet been identified or cataloged. These objects could be anything from previously untracked satellites, spent rocket stages, debris from satellite collisions, or even natural meteoroids temporarily captured by Earth's gravity.

Not visible in the next 10 days
Identifier
47958, 2021-022AC
Orbit
SSO
Country
Flag of TBDTBD
Related business
Manufacturer
Chosun U
Mission
Amateur Microgravity
Bus & Motor
CUBESAT 3U, Unknown motor
Mass
3 kg wet, 3 kg dry
Launch date (UTC)
2021-03-22 (5 years ago)
Launch vehicle
SOYUZ-2-1A
Launch site
Tyuratam Missile And Space Complex (TTMTR)
Object type
Unknown
Shape & HBR
Box, 0.1 m
Radar Cross Section
0.035 m², Small (<0.1 m²)

Expand to show TLE details & history
Last TLE update: 17 hours ago

TLE from 17 hours ago
0 OBJECT AC
1 47958U 21022AC  25349.00181948  .00040196  00000-0  57356-3 0  9993
2 47958  97.3983 254.9865 0008501  17.0814 343.0725 15.56143744261001
Epoch: 2025-12-15T00:02Z
TLE epoch observation values (Epoch: 2025-12-15T00:02:37.203Z)
Latitude
-0.00002°
Longitude
170.42484°
Altitude
396.457 km
Speed
7.676 km/s
True Right ascension
16h 59m 56s
True Declination
0° 00' 00"
Sunlit
Object was in daylight at epoch
Visualization orbit readout
Latitude
Unknown
Longitude
Unknown
Altitude
Unknown
Speed
Unknown
Apparent Right ascension
Unknown
Apparent Declination
Unknown
Sunlit
N/A
Visualization observer readout
Local Sidereal Time
15:11:33
Azimuth
Unknown
Elevation
Unknown
Doppler factor
Unknown
Orbital elements
Apogee altitude
401.506 km
Perigee altitude
389.989 km
Semi-major axis
6,773.884 km
Eccentricity
0.00085
Inclination
97.3983°
RAAN
254.9865°
Arg. of periapsis
17.0814°
True anomaly
343.04411°
Mean anomaly
343.0725°
Eccentric anomaly
343.05831°
Mean motion
3.89302 °/min
Orbital period
92.47 mins
BSTAR
0.00057356
Loading maneuver chart data...
Computing Atmospheric mass density...
Loading historical data...
Loading historical data...
Loading historical data...
Loading historical data...
Loading historical data...
Loading historical data...
Loading historical data...

Documentation

Showing up to 5 results
|